Location: Amsterdam
(30.7274°N, 84.4357°W)
Time: 19:05:00
(UTC+00:00)

Altair - Pass Details

Date: 07 August 2024
Orbit: 1501 x 1682 km, 47.2° (Epoch: 07 September)

Event Time Altitude Azimuth Distance (km) Brightness Sun altitude
Rises 15:35:40 0° 187° (S) 4,911 10.2 57.4°
Reaches altitude 10° 15:39:42 10° 175° (S) 3,913 10.0 58.2°
Maximum altitude 15:47:08 24° 126° (SE) 2,923 10.0 59.7°
Drops below altitude 10° 15:54:23 10° 77° (ENE) 3,835 10.1 61.2°
Sets 15:58:14 0° 65° (ENE) 4,793 10.3 61.9°
